Location: Unspecified
(0.0000°N, 0.0000°E)
Time: 02:33:15
(UTC+00:00)

HST - Visible Passes

Search period start: 29 July 2014 00:00
Search period end: 08 August 2014 00:00
Orbit: 547 x 552 km, 28.5° (Epoch: 28 July)

Date Brightness Start Highest point End Pass type
(mag) Time Alt. Az. Time Alt. Az. Time Alt. Az.
02 Aug 3.0 19:21:59 10° N 19:24:00 13° NNE 19:24:47 13° NE visible
03 Aug 2.6 19:14:15 10° NNW 19:17:14 19° NNE 19:18:25 17° NE visible
04 Aug 2.1 19:06:53 10° NNW 19:10:27 27° NNE 19:12:05 21° ENE visible
05 Aug 1.5 18:59:42 10° NW 19:03:38 40° NNE 19:05:48 22° E visible
05 Aug 4.1 20:41:20 10° W 20:41:23 10° W 20:41:23 10° W visible
06 Aug 1.0 18:52:40 10° NW 18:56:48 62° NNE 18:59:34 20° ESE visible
06 Aug 4.0 20:35:03 10° WSW 20:35:09 10° WSW 20:35:09 10° WSW visible
07 Aug 3.3 05:09:47 10° S 05:11:55 14° SSE 05:14:02 10° ESE visible
07 Aug 0.8 18:45:47 10° WNW 18:49:58 85° SSW 18:53:20 15° ESE visible
